Theta_e
298 292 291 291 293 293 293 293 292 293 292 291 290 290 289 289 290 293 293 295 296 292 291 292 293 293 295 296 298 300 302 302 302 301 301 303 304 305 307 309 310 312 314 318 320 322 327 338 349 350 348 346 345 344 345 345 346 344 344 345 343 344 345 343 341 341 341 340 339 339 338 339 341 341 343 343 343 344 343 342 340 345 344 346 347 347
296 290 291 293 293 293 293 294 293 292 292 290 290 290 289 290 289 293 293 295 295 291 291 293 293 293 294 296 298 299 299 298 300 300 300 301 303 304 306 307 309 311 315 317 318 322 326 329 346 350 348 347 343 342 343 344 344 343 345 345 344 344 344 344 343 342 342 342 338 337 337 338 339 340 340 340 342 344 344 343 343 345 345 346 346 347
292 290 293 294 295 295 294 293 293 291 290 291 290 290 289 290 292 294 293 294 295 292 290 293 291 293 295 296 298 299 298 300 301 301 301 302 302 303 305 307 309 310 312 315 317 320 321 326 340 348 348 347 348 344 343 343 342 342 344 345 346 344 343 344 345 343 341 342 341 340 339 339 339 343 344 342 342 344 345 346 345 345 348 346 346 347
289 291 294 295 295 293 293 293 292 292 291 290 290 289 287 292 290 288 292 292 294 292 291 293 291 292 295 297 298 300 299 300 303 303 303 304 302 302 303 305 306 308 310 311 314 318 320 322 333 346 346 346 347 345 345 343 342 341 342 344 346 345 345 344 345 344 344 343 343 344 344 343 342 341 343 343 343 344 344 344 345 346 347 346 346 346
289 293 297 296 294 293 291 292 291 290 289 291 290 290 289 290 290 289 290 292 292 293 293 291 290 290 293 293 295 299 301 300 302 302 302 303 304 304 306 305 306 306 308 310 313 316 319 320 326 340 344 346 346 346 344 343 342 341 343 344 345 345 345 345 345 345 344 342 342 343 344 344 343 342 341 342 340 342 342 343 344 343 346 345 345 346
293 296 296 293 293 293 292 290 291 291 288 290 292 291 291 291 289 290 291 290 288 288 292 290 284 286 293 294 294 297 299 299 301 300 301 302 303 304 304 305 306 307 307 309 311 313 316 320 323 334 342 345 346 346 345 345 343 342 342 343 345 345 346 345 345 346 343 342 341 339 337 336 337 335 337 336 337 339 340 339 343 344 345 345 344 345
293 296 294 292 292 291 291 290 292 292 289 288 290 294 293 291 291 290 289 289 284 283 291 294 285 283 293 293 295 296 297 297 300 300 301 302 303 303 303 305 306 306 306 308 310 311 313 316 319 329 337 343 345 347 348 345 343 342 343 343 343 344 345 345 345 345 343 343 342 341 339 338 336 335 337 341 342 341 341 343 344 342 345 345 345 347
294 293 293 293 292 291 290 289 292 292 289 287 293 292 291 290 289 289 289 288 287 291 292 291 290 285 285 291 296 297 296 296 297 299 300 300 302 303 304 305 306 306 308 307 308 311 313 315 317 321 333 340 343 347 347 344 343 343 343 343 343 344 344 345 344 344 344 343 341 341 341 340 339 338 338 341 343 344 342 342 343 344 344 345 344 345
294 292 292 292 292 291 290 292 293 293 290 290 293 293 290 291 291 290 289 288 289 288 284 288 291 284 284 290 295 296 293 294 295 297 299 300 301 302 304 305 306 307 308 309 307 309 312 314 316 318 327 338 343 347 347 345 345 344 344 343 344 343 344 344 345 344 345 344 343 342 341 339 341 342 341 342 343 342 343 343 344 344 343 344 344 345
295 295 295 293 291 289 293 294 294 293 289 292 294 295 293 293 292 290 288 288 288 285 281 286 289 283 284 290 292 294 292 292 295 297 299 300 301 302 303 304 306 308 308 308 308 309 311 314 317 320 323 335 342 346 349 347 345 344 344 344 344 344 344 344 346 345 345 345 344 342 341 340 341 341 341 343 342 342 343 342 342 343 342 342 343 345
296 300 299 295 292 294 294 295 295 293 293 295 294 290 291 291 290 291 289 288 286 280 282 287 289 287 281 288 290 291 292 295 296 298 299 301 301 302 304 304 305 306 307 307 308 310 311 314 316 320 322 331 339 346 348 347 345 345 345 344 344 344 344 346 345 345 344 345 345 343 343 342 342 342 341 341 342 341 341 340 341 341 341 342 342 343
296 297 295 296 298 297 296 294 296 295 294 293 291 289 289 287 289 287 287 288 280 278 285 288 288 288 279 285 291 295 297 297 297 296 297 299 299 301 303 304 305 305 305 306 306 307 310 312 314 316 320 330 335 344 347 347 344 344 342 342 342 343 344 344 344 345 344 344 344 344 344 343 343 343 341 341 341 340 339 340 340 341 342 342 342 343
293 293 296 295 298 294 294 292 293 295 294 291 290 289 282 280 281 277 281 277 278 278 285 289 289 285 284 288 292 295 295 296 298 297 298 299 299 300 301 302 303 304 305 306 306 306 308 310 313 315 317 327 333 338 346 345 345 344 341 341 341 341 344 343 344 344 343 344 344 344 344 344 344 343 342 342 343 341 339 340 340 341 340 341 340 341
290 295 293 293 294 296 295 289 288 288 291 290 287 286 281 277 276 273 278 280 280 284 289 288 290 284 289 291 294 294 296 297 298 299 299 299 300 300 301 302 303 304 304 305 306 306 308 310 312 316 319 323 331 336 345 346 344 342 340 341 341 341 343 344 345 344 344 344 345 345 345 345 343 343 342 343 342 342 341 341 341 341 340 340 340 341
282 285 289 291 289 296 294 293 292 290 290 289 291 288 284 282 277 273 277 273 276 279 285 290 284 282 283 286 295 296 297 298 299 299 300 301 301 302 302 302 303 304 304 304 305 305 308 311 313 316 320 326 330 334 343 345 344 342 340 340 341 341 342 343 342 343 343 343 344 345 345 344 343 343 343 343 343 343 343 343 342 342 342 341 341 341
286 286 293 296 295 295 292 295 295 292 290 291 291 291 286 283 288 279 281 281 281 280 280 284 283 288 287 296 297 298 298 298 299 299 300 300 300 301 300 301 302 303 304 305 305 306 308 310 312 314 317 321 328 330 339 343 343 341 340 341 341 340 341 343 343 343 344 343 344 345 346 346 344 344 344 342 343 344 345 344 343 343 344 343 342 343
287 285 294 293 295 294 294 295 294 294 282 288 289 283 286 292 289 283 283 286 284 281 277 285 285 288 293 293 295 295 295 296 297 297 297 298 299 303 304 304 303 303 304 306 306 307 309 310 311 313 315 318 322 330 336 342 344 342 341 340 340 340 341 341 342 343 342 344 345 346 346 347 345 344 343 342 344 345 346 345 344 343 343 344 343 342
282 284 292 291 289 295 296 295 294 294 293 289 284 287 291 293 291 285 277 280 279 276 278 283 281 283 284 281 294 294 293 295 295 296 297 300 301 301 303 305 306 305 305 307 308 309 309 310 311 312 314 316 321 328 334 338 345 343 342 341 340 340 339 341 342 342 344 343 343 344 346 346 344 343 343 343 343 345 345 344 343 344 343 342 343 343
290 281 288 292 292 291 293 292 290 293 294 288 287 295 285 280 278 284 281 273 274 274 276 281 283 283 285 285 290 291 292 294 295 296 297 298 299 302 304 305 307 309 308 306 307 307 308 309 311 313 314 316 319 326 334 338 342 343 343 341 341 341 342 342 343 343 342 344 343 344 344 346 344 343 343 344 345 345 343 342 342 343 343 344 344 342
290 280 285 291 290 291 291 289 282 288 293 294 294 290 293 288 284 280 281 281 279 275 276 278 280 279 287 288 291 291 293 294 295 296 296 298 300 302 304 305 306 307 309 310 312 314 314 312 313 314 315 315 316 322 332 338 342 343 342 342 341 342 342 341 342 343 343 344 344 344 345 345 345 343 343 344 345 345 343 342 342 342 343 343 343 343
286 289 278 287 291 289 283 286 284 287 286 288 287 286 288 288 290 287 286 283 281 278 277 277 276 281 288 292 292 293 294 295 295 295 297 298 300 303 305 306 307 308 308 309 310 312 314 316 320 323 323 320 318 322 332 336 340 343 343 342 341 339 340 341 342 342 342 342 343 343 344 344 344 344 343 344 345 344 343 343 343 343 343 343 343 342
286 285 280 284 285 284 285 291 291 291 291 288 288 287 288 285 282 278 276 287 284 280 277 276 275 283 290 294 293 293 295 295 297 297 298 299 301 304 305 306 306 306 308 308 309 311 312 315 318 321 323 323 322 322 329 336 339 343 342 341 340 340 339 340 341 342 342 341 343 344 344 344 345 343 343 344 345 344 342 343 343 343 342 342 343 341
291 288 284 282 284 285 289 293 295 295 293 292 292 289 291 290 288 283 276 281 285 285 286 284 279 281 292 296 296 296 297 297 298 298 299 301 303 303 304 305 305 307 308 309 309 310 312 316 318 320 322 323 322 323 328 336 336 341 342 341 340 338 339 340 340 341 342 342 342 343 344 345 344 343 343 344 344 344 343 343 343 342 342 341 341 342
294 284 282 284 289 292 292 293 294 295 293 291 292 292 291 287 288 287 286 287 282 284 282 282 278 282 293 298 298 298 299 299 298 298 297 298 300 302 302 303 304 306 308 309 309 310 312 316 319 321 322 323 322 323 327 334 335 341 342 341 340 339 339 340 341 341 341 341 342 343 344 344 343 343 342 343 343 343 344 343 342 342 342 341 341 340
284 286 283 280 281 286 286 286 288 291 292 290 290 292 291 291 291 291 290 290 282 284 284 281 276 282 293 297 298 298 298 296 296 297 299 296 298 301 302 305 307 307 307 307 308 310 313 314 317 321 323 324 322 322 329 334 335 339 341 341 340 339 339 338 340 341 341 341 341 343 343 343 343 342 342 342 342 342 343 343 342 341 340 341 341 341
287 286 284 277 275 274 274 276 279 283 286 290 290 290 290 289 288 287 282 284 279 284 285 282 281 288 293 296 295 296 296 296 297 298 299 299 299 301 303 306 306 305 305 307 309 310 311 313 315 319 325 326 324 323 328 334 336 337 342 341 340 338 339 338 339 340 341 341 341 341 342 342 342 341 342 342 342 342 342 342 341 340 341 341 340 341
288 287 286 284 281 279 282 284 288 288 287 285 288 289 289 290 290 289 288 283 280 284 283 286 286 287 289 291 293 294 295 295 296 297 298 298 300 301 303 303 304 304 305 307 309 310 312 313 315 317 323 329 326 325 329 333 334 337 341 342 340 340 339 340 340 340 341 341 341 340 341 342 341 341 341 342 342 342 341 340 340 340 340 341 341 340
288 285 286 285 284 285 286 286 288 289 285 287 287 288 290 289 290 288 284 282 288 284 280 287 291 288 289 292 293 294 296 297 297 299 300 300 299 300 302 303 303 305 307 308 310 311 311 313 316 318 323 329 326 326 330 332 336 336 340 339 339 339 338 338 339 340 339 340 340 339 340 341 341 341 341 342 342 341 341 340 340 340 341 341 341 340
287 283 287 287 285 287 288 287 288 288 288 288 289 290 289 290 290 287 287 289 289 283 281 288 290 288 290 292 294 295 296 297 297 298 300 301 300 300 302 303 304 305 308 309 310 311 312 313 315 318 324 328 327 327 331 334 336 338 340 340 338 338 338 340 340 339 338 339 338 339 340 341 341 341 341 340 340 340 340 340 340 340 340 340 341 340
288 286 289 288 285 287 289 290 290 288 288 288 288 289 290 290 289 290 289 290 290 288 289 289 290 290 292 294 295 297 298 299 300 302 302 302 302 302 302 304 305 305 307 310 311 311 312 313 315 319 325 328 326 327 331 332 334 337 338 338 337 337 338 339 339 338 338 338 338 339 340 341 341 340 340 339 338 338 340 339 339 339 339 339 340 339
289 286 289 288 286 287 290 291 291 289 288 287 288 289 290 290 291 290 290 291 291 290 291 291 290 289 294 298 298 300 301 302 303 302 302 304 304 304 304 305 307 308 309 311 311 312 312 315 316 318 325 326 327 329 333 334 336 338 339 339 338 338 339 339 339 338 338 338 338 338 339 340 339 339 338 338 337 338 338 338 338 338 338 338 338 338
293 287 290 288 284 285 290 291 290 291 290 288 288 289 289 289 288 290 288 292 290 289 291 291 289 290 296 300 301 302 302 301 301 303 304 305 307 305 305 306 307 309 310 311 313 314 314 316 319 319 324 327 329 330 332 333 334 336 338 337 337 337 337 338 338 337 338 338 339 339 338 338 338 337 336 337 336 336 337 338 337 337 337 337 337 337
291 288 286 286 283 285 290 291 290 289 287 285 285 287 289 291 291 292 294 295 294 294 290 287 290 296 297 300 299 300 302 303 304 305 307 308 308 307 307 308 310 311 310 311 313 316 317 318 321 322 323 328 330 329 330 332 333 335 336 336 337 337 337 337 337 337 337 337 338 339 338 338 337 336 335 335 336 336 336 336 336 336 336 336 337 336
293 290 287 289 282 284 289 290 291 286 279 279 289 292 290 287 289 286 288 291 294 296 295 298 297 298 299 299 301 301 302 302 305 307 309 310 310 311 311 311 312 311 310 312 314 316 320 322 322 323 324 329 332 327 325 333 335 337 338 338 337 337 337 336 336 337 336 337 337 338 337 337 336 335 335 336 335 335 335 335 335 336 337 336 336 334
291 290 289 290 285 284 287 288 285 280 280 288 292 292 293 291 291 289 290 293 295 295 295 295 296 296 299 301 302 303 304 306 307 307 308 310 311 312 312 312 312 310 311 312 312 315 320 322 324 324 324 328 332 333 332 333 336 337 337 337 336 336 336 336 336 337 337 337 338 338 336 335 334 334 335 335 334 334 333 333 335 336 336 335 334 333
289 289 289 288 289 287 285 285 278 281 286 287 289 291 294 293 292 290 289 293 296 297 296 293 295 296 298 300 302 305 303 305 307 309 310 312 312 313 313 312 312 313 313 313 312 314 318 322 323 324 325 329 333 333 332 332 335 335 335 337 337 336 336 335 335 336 336 336 338 337 336 335 334 335 335 334 333 333 333 333 334 334 334 334 334 335
294 293 290 286 290 281 283 284 285 287 286 287 287 288 289 286 286 285 283 290 295 296 295 293 294 295 297 300 302 304 304 304 304 306 312 310 313 311 311 312 314 313 314 313 313 314 319 323 324 325 326 327 333 332 334 334 335 335 335 335 336 336 336 336 335 335 336 336 337 336 336 335 335 335 333 332 331 331 331 332 334 334 334 332 332 332
296 290 292 287 285 288 283 283 284 283 280 284 289 293 295 295 295 294 291 289 296 297 297 294 293 294 297 299 301 303 302 299 298 299 307 310 314 315 314 314 313 313 313 313 315 318 321 324 326 326 326 327 333 334 335 336 336 335 336 335 336 335 335 335 335 336 336 337 335 335 335 336 335 333 332 331 330 330 331 332 333 333 331 331 331 331
296 296 293 289 286 287 284 282 282 280 282 288 290 294 295 296 296 296 291 286 294 296 295 295 293 295 296 297 299 301 299 294 295 301 307 310 311 313 312 312 311 311 313 314 316 318 321 324 325 326 325 328 333 334 335 335 335 334 334 335 335 336 334 335 335 335 335 336 336 336 336 335 334 333 332 331 330 330 330 330 330 331 330 331 332 330
292 291 289 287 285 285 284 282 281 285 284 290 293 294 295 297 298 295 281 282 293 294 295 295 294 295 297 299 300 299 297 292 295 302 308 309 312 312 312 311 312 314 316 319 320 323 324 324 324 325 328 332 334 334 335 334 334 333 334 335 336 335 335 335 336 336 337 337 337 337 337 335 332 332 332 331 331 331 330 330 329 329 329 330 329 327
286 286 288 284 285 284 283 283 286 286 292 294 294 295 295 298 296 283 277 285 294 295 297 297 296 297 298 298 300 296 300 302 303 307 310 312 312 312 313 314 315 316 316 319 321 316 323 325 326 327 332 333 334 335 335 334 334 333 334 335 335 334 335 338 338 337 338 337 336 336 336 334 333 332 333 333 331 330 328 329 329 327 327 328 328 328
285 286 287 287 283 283 284 283 283 287 293 295 296 296 298 292 282 279 290 297 297 296 298 299 298 299 300 300 300 300 302 305 308 311 311 312 312 311 312 314 316 318 320 319 319 320 324 325 329 331 331 333 334 335 335 334 333 334 334 335 334 336 338 338 339 338 338 335 334 334 334 333 333 333 332 331 330 329 328 329 329 327 327 328 327 325
285 283 282 282 284 285 284 282 281 278 288 296 296 294 297 285 287 294 296 298 299 298 298 298 299 299 300 300 302 303 304 306 308 309 311 312 311 311 313 314 316 317 318 319 320 321 322 323 325 321 323 334 335 335 335 335 334 334 334 333 336 337 337 338 338 338 336 335 333 333 333 333 332 331 332 331 330 329 328 328 327 327 327 326 325 323
290 283 283 284 288 280 281 279 280 288 293 297 295 288 293 295 298 299 298 296 299 299 299 299 299 300 301 301 302 304 306 307 308 309 310 311 313 313 313 315 316 318 318 319 320 320 321 323 326 323 321 325 333 335 335 336 333 334 333 334 337 338 339 338 338 338 336 334 333 333 332 331 331 332 332 330 329 328 328 327 327 327 327 328 326 324
291 287 288 283 290 285 283 287 293 296 296 298 298 297 298 299 299 300 300 298 298 299 301 299 299 302 303 303 303 305 305 307 307 309 309 310 311 311 313 315 316 316 316 316 318 318 321 323 325 326 321 321 323 333 337 335 334 334 333 336 337 337 337 337 337 337 335 333 332 330 331 331 331 331 330 330 329 328 327 327 326 325 326 326 325 324
294 294 295 292 289 294 295 296 297 297 297 297 299 299 299 299 301 300 299 298 299 300 301 299 300 301 303 304 303 304 305 306 307 308 309 310 310 311 315 316 316 317 316 318 318 319 321 326 328 327 323 321 322 323 333 337 335 333 334 337 337 337 338 337 336 335 334 333 332 332 331 330 330 331 330 329 329 328 328 326 324 324 324 324 323 323
293 295 293 289 292 289 284 295 295 295 296 297 298 300 301 300 299 300 300 300 299 299 300 301 302 304 304 305 304 304 305 308 308 308 309 309 309 311 314 314 315 316 316 316 318 318 322 326 326 325 324 321 322 323 329 335 337 337 336 336 337 337 337 337 336 333 332 332 331 331 330 329 329 328 328 329 329 329 328 326 325 323 322 324 324 323
289 297 291 292 291 288 287 293 295 296 297 299 299 297 297 297 299 301 302 302 301 301 302 302 305 304 305 304 305 305 306 309 307 307 307 308 309 313 314 314 315 315 316 318 319 319 322 324 326 326 325 322 322 324 328 335 334 335 336 337 337 337 336 333 333 333 333 331 330 328 327 328 313 322 328 327 327 326 325 325 324 322 321 322 323 322
293 295 287 291 289 291 294 294 294 295 296 297 298 298 298 298 299 301 302 301 301 301 302 302 303 304 304 305 306 307 306 307 308 308 307 308 311 314 313 314 316 316 317 318 319 319 320 321 322 325 327 327 329 330 329 335 335 336 336 336 336 336 333 330 325 330 333 332 330 327 326 328 326 328 327 326 326 327 326 324 323 323 322 324 325 326
293 288 292 290 286 286 287 290 294 287 286 292 295 296 297 299 300 301 301 300 301 301 301 302 302 304 305 307 308 308 306 306 307 308 308 310 312 314 314 314 315 316 317 319 320 320 320 321 322 323 326 327 329 330 329 331 333 334 335 335 336 335 331 329 329 330 330 329 329 328 326 328 327 328 325 325 324 325 320 303 310 317 322 322 312 307
291 292 291 287 285 285 291 294 295 294 294 295 296 298 299 301 301 299 299 300 300 301 302 302 302 303 304 306 309 308 307 307 307 310 309 311 313 314 314 314 314 315 316 319 320 320 320 321 321 322 323 325 327 329 329 331 333 332 331 332 333 332 330 329 326 327 327 326 326 323 325 326 327 327 325 325 324 322 317 313 304 294 305 309 305 302
Wind_Speed
3 7 7 7 6 5 8 7 9 10 8 7 9 10 11 11 12 11 10 6 4 9 13 14 14 14 14 14 13 13 12 13 13 13 13 11 10 10 10 10 11 12 12 10 11 12 11 10 10 11 10 11 14 15 15 15 15 16 16 16 17 15 15 14 14 13 13 13 13 13 14 13 12 12 11 11 10 10 10 11 11 11 10 11 11 11
6 8 8 6 6 6 7 7 7 9 9 10 10 11 10 11 12 10 7 5 5 7 11 12 14 14 14 14 15 14 15 16 14 13 14 15 14 12 13 13 12 11 10 12 12 12 11 10 9 10 10 12 14 15 15 16 15 16 16 17 15 14 16 15 15 14 11 11 12 12 12 12 12 12 12 11 11 11 11 11 11 11 11 12 11 10
7 7 6 4 3 4 5 6 7 9 10 10 10 10 11 11 11 10 8 7 9 10 12 13 15 14 14 14 14 14 15 13 12 13 13 13 14 13 13 14 13 11 11 11 12 12 11 11 10 10 10 11 13 14 15 16 15 13 12 14 15 15 16 16 14 14 15 13 13 13 12 12 11 11 11 11 11 11 10 10 11 11 11 12 10 10
8 3 3 1 3 8 9 8 8 9 10 10 10 10 11 9 8 7 7 5 6 7 8 9 13 11 13 14 16 15 15 14 12 14 15 13 15 15 15 15 13 14 12 14 13 13 12 12 10 11 11 11 12 12 14 16 17 15 14 14 15 16 17 15 14 14 14 14 14 13 12 12 11 11 11 11 11 11 12 12 11 11 11 12 11 11
10 12 7 6 9 9 11 10 10 8 9 10 12 12 11 9 6 6 5 5 7 11 13 15 14 14 13 16 15 15 17 16 15 16 16 16 16 16 15 16 16 16 15 13 13 13 12 13 13 13 11 11 12 14 15 16 15 14 18 19 19 17 17 16 15 16 15 14 14 13 12 12 11 10 10 11 11 12 12 12 12 12 13 13 11 11
9 2 4 7 7 8 9 10 10 10 11 10 13 13 12 11 10 10 11 11 9 10 11 13 11 13 13 17 18 13 11 14 14 15 15 15 14 14 15 16 16 17 17 16 15 14 13 13 13 14 13 14 13 14 15 15 16 17 16 17 16 14 15 15 17 18 16 15 15 15 14 15 14 13 13 14 14 13 13 14 11 13 13 13 11 11
6 2 4 6 7 8 9 10 10 11 11 11 9 9 11 10 12 12 12 10 10 10 5 10 12 12 8 12 10 10 11 13 10 12 13 12 12 12 12 12 13 14 16 18 18 17 16 15 15 14 15 14 14 13 13 14 15 18 15 14 18 17 14 14 16 19 16 17 15 17 16 15 15 14 13 12 12 12 12 12 13 12 12 13 12 11
4 2 5 6 8 9 9 8 9 11 11 12 9 1 7 11 11 11 11 11 11 9 8 6 9 11 12 11 9 9 10 11 11 13 14 13 14 13 12 12 12 12 14 15 18 18 17 16 16 16 16 15 13 13 14 15 16 18 18 18 19 16 14 14 17 19 18 16 16 17 16 14 14 14 13 13 12 13 12 12 13 11 12 12 12 11
1 8 8 9 8 9 9 7 7 9 10 10 9 3 10 11 12 10 10 10 10 9 12 12 14 12 13 12 11 9 11 13 15 17 17 15 15 15 14 13 13 14 14 14 15 17 17 16 17 16 16 16 14 13 15 15 16 17 17 16 17 18 17 16 19 19 20 16 16 16 15 14 13 13 12 12 12 12 12 13 12 12 12 12 12 12
7 6 7 8 9 8 8 8 7 7 10 10 13 12 12 13 12 12 10 12 12 12 14 13 12 12 13 10 10 12 14 16 15 16 15 13 13 13 13 13 12 12 13 14 17 17 17 16 16 16 16 17 14 14 15 16 16 17 19 19 20 20 17 16 20 20 21 19 15 16 16 17 15 13 13 13 13 13 13 14 14 13 12 11 11 11
11 10 6 8 8 7 7 8 7 9 11 12 7 9 12 12 10 11 10 12 12 15 17 16 15 14 13 10 10 11 10 10 10 10 10 10 12 13 12 12 12 11 12 12 13 15 16 16 16 15 18 18 16 13 15 15 16 17 18 20 20 21 17 17 18 21 22 18 16 16 17 18 17 17 15 13 14 14 14 14 14 13 12 11 11 10
9 10 7 4 9 8 7 9 9 8 9 8 10 11 10 12 12 11 12 12 12 14 15 17 15 16 15 12 12 12 12 12 10 11 12 13 13 12 11 10 10 11 12 13 14 15 15 16 16 16 18 18 17 15 16 15 16 17 18 19 22 23 21 18 18 20 20 18 18 17 18 18 17 17 15 16 16 16 15 14 14 12 11 11 10 10
9 5 5 3 4 7 6 7 5 9 9 9 10 11 12 10 7 10 11 12 14 15 12 13 16 16 19 16 13 11 12 13 12 12 12 12 13 14 14 14 13 12 11 11 13 14 15 14 14 16 18 18 18 17 17 17 16 16 18 21 22 23 23 21 20 19 20 19 18 16 17 17 16 17 17 16 15 15 14 12 13 12 12 11 12 11
11 5 2 5 5 7 6 8 4 6 8 11 12 11 11 11 11 13 13 11 11 14 16 15 14 15 13 13 14 17 19 18 16 16 15 15 16 16 16 15 14 13 14 13 13 14 15 14 13 13 16 18 17 18 17 16 16 16 17 19 21 23 23 21 18 19 18 19 18 16 16 15 15 15 16 15 15 14 14 12 13 13 13 12 12 12
12 6 3 4 4 8 6 7 8 10 8 9 11 12 12 11 9 11 11 10 12 12 12 14 13 10 13 11 14 15 15 16 15 15 14 13 14 14 15 16 17 16 15 14 13 14 15 14 13 12 12 14 17 18 18 16 17 17 17 20 22 21 22 23 22 20 21 18 17 15 15 15 15 15 15 15 14 14 14 13 12 12 12 12 12 11
9 11 10 4 3 4 9 7 8 9 10 10 10 10 13 14 8 14 10 10 8 9 10 11 11 8 11 8 8 4 6 7 8 10 11 13 14 16 16 16 16 14 13 13 14 15 17 17 15 14 13 13 14 18 18 19 17 17 18 20 22 22 23 23 21 20 19 19 16 16 17 17 16 15 14 14 13 14 15 14 12 13 13 12 12 11
9 8 6 1 5 8 9 8 8 5 7 2 5 12 12 8 9 10 11 14 13 12 14 10 11 12 13 15 18 18 17 18 17 17 17 15 12 10 12 13 16 15 14 12 13 13 15 16 15 15 15 14 15 16 19 19 18 20 19 19 22 23 22 24 22 21 21 17 15 16 17 16 17 18 17 15 15 16 15 13 12 13 13 13 11 10
8 15 14 14 14 7 3 6 9 10 9 10 11 7 7 8 10 8 10 6 8 11 11 11 15 13 13 12 6 10 10 12 14 14 12 8 10 13 11 11 13 14 14 13 13 13 16 17 18 17 16 18 16 18 20 22 19 18 19 21 23 23 24 24 23 20 17 18 19 17 18 18 19 17 17 16 16 15 15 12 12 13 13 13 10 9
2 12 6 5 7 4 2 1 9 13 12 12 12 6 6 4 8 9 6 11 11 12 10 13 15 14 14 13 11 13 13 11 10 10 11 11 10 8 9 10 11 12 12 15 16 16 17 17 17 17 17 18 18 18 19 21 20 19 20 21 22 24 24 24 19 18 19 20 14 14 18 18 18 16 15 16 16 15 16 14 13 12 12 12 11 11
3 6 7 4 2 4 2 1 6 6 7 14 12 13 8 9 9 6 7 6 8 10 9 13 14 12 11 10 12 15 12 10 10 10 12 12 9 9 9 10 10 11 11 11 11 11 13 15 16 17 18 20 20 19 19 21 20 22 22 22 21 21 21 22 20 19 17 16 15 16 17 19 18 18 17 16 15 15 16 15 15 14 13 12 12 12
6 4 10 1 6 4 6 6 6 8 7 5 8 9 8 9 5 7 7 10 8 8 9 10 11 11 10 10 13 15 12 11 10 12 10 11 12 11 10 11 12 13 12 12 12 12 13 14 14 14 14 17 19 18 19 21 22 21 21 21 21 21 22 21 20 20 19 17 18 18 19 19 18 20 17 17 16 15 14 14 13 13 12 12 13 13
4 5 9 9 10 9 10 7 11 12 10 8 7 9 10 10 10 10 10 8 9 9 9 9 13 12 12 7 10 10 9 10 8 9 11 13 14 12 12 14 16 16 16 16 15 14 13 14 15 15 14 14 16 18 21 21 22 21 22 21 21 21 21 21 20 19 19 20 17 20 19 20 17 18 17 17 15 15 16 15 14 13 13 13 13 14
7 2 9 14 13 11 11 11 10 13 11 12 9 10 10 10 10 9 10 7 7 10 12 11 11 11 11 2 4 4 2 2 2 7 9 10 12 14 15 18 19 18 16 15 16 15 15 15 15 14 15 15 18 20 21 22 22 20 22 22 20 21 21 21 22 21 18 18 18 20 19 18 18 17 18 17 17 17 17 16 15 14 14 14 13 14
3 4 9 14 13 14 7 5 7 11 12 12 13 14 11 12 13 11 9 5 8 8 8 6 9 10 9 1 2 5 7 2 5 5 6 7 8 13 16 18 18 15 14 16 16 15 14 14 14 14 15 15 16 19 22 21 22 20 19 21 21 22 22 21 20 19 19 20 19 19 18 18 19 20 19 18 16 17 17 15 15 13 14 15 14 15
4 2 4 12 13 7 4 2 2 6 9 8 8 10 13 13 13 13 12 10 11 12 12 8 11 11 4 4 3 6 3 5 7 7 7 8 12 13 16 15 12 14 18 18 17 16 15 15 15 15 15 15 16 19 20 22 23 20 20 21 21 20 22 21 19 20 21 21 19 19 18 19 19 21 21 18 15 16 16 16 14 12 15 15 15 14
5 8 5 6 9 12 12 11 11 8 9 9 10 9 11 12 13 10 10 9 10 12 13 11 12 13 9 5 6 7 7 8 10 10 10 9 12 15 14 13 15 17 17 19 19 19 17 15 14 14 15 15 16 19 21 22 22 21 19 20 19 19 20 21 18 20 21 21 20 20 20 19 20 22 21 18 16 18 18 16 16 16 15 16 16 14
3 3 7 10 10 11 12 12 2 1 8 10 12 11 9 11 11 12 11 10 11 9 10 13 15 17 19 17 13 12 11 10 10 11 9 9 12 14 14 15 16 17 18 19 19 18 17 15 16 16 17 16 18 21 21 21 23 21 19 20 20 19 20 21 21 20 21 22 21 20 20 19 20 20 21 17 16 16 17 17 17 17 17 16 15 14
2 7 8 10 15 14 15 15 16 13 14 15 15 13 11 10 12 14 11 14 11 11 13 15 13 13 15 15 13 13 12 12 12 10 10 11 14 14 14 17 20 21 19 14 17 21 20 17 15 16 17 17 18 21 21 21 21 22 20 20 20 19 19 18 21 22 22 22 22 21 20 19 21 20 18 16 15 16 18 18 17 17 16 15 15 14
6 5 6 3 13 10 12 16 14 14 13 12 13 13 11 10 12 15 16 18 17 13 15 18 17 21 22 23 23 20 19 18 18 16 14 14 15 15 17 19 21 21 19 17 17 19 18 16 14 15 17 18 20 23 24 21 21 21 19 19 20 19 21 20 21 22 22 22 23 22 19 17 18 16 16 17 17 17 17 18 17 17 16 15 13 12
1 6 7 7 16 17 12 7 6 10 11 9 10 12 11 12 13 15 17 17 18 20 21 22 24 25 24 24 24 21 19 16 14 13 13 13 12 14 18 19 21 21 20 18 16 17 14 15 15 14 16 18 21 24 23 22 22 21 20 20 20 20 20 21 21 22 22 23 22 21 20 19 15 16 16 17 17 17 16 17 17 17 17 17 14 13
1 6 8 13 12 13 7 6 8 3 3 4 4 7 11 11 13 14 16 17 19 21 21 22 23 23 22 19 19 18 14 12 14 16 15 13 13 15 17 17 19 21 20 18 15 14 14 15 15 14 14 18 21 24 23 23 21 20 21 20 20 20 20 20 21 21 21 22 21 20 20 17 15 16 19 19 17 15 17 18 17 17 17 16 15 14
5 6 9 9 11 8 6 11 11 4 3 4 5 5 5 9 11 12 13 13 14 17 18 18 19 17 15 15 17 17 18 19 19 18 16 14 11 14 16 16 18 18 19 19 17 14 15 16 15 15 13 18 21 24 23 22 21 20 20 20 20 19 20 21 21 21 20 20 21 21 20 16 19 19 18 18 20 18 19 16 17 17 17 16 15 13
7 8 10 10 11 8 11 12 7 3 5 4 13 14 13 13 12 15 14 13 14 15 16 15 16 15 18 20 22 20 18 18 18 16 14 14 12 13 16 16 15 15 17 18 19 18 17 16 15 14 14 15 19 21 24 22 21 20 21 21 20 19 21 21 22 22 22 20 20 20 18 16 19 21 20 21 19 18 17 17 17 18 18 18 15 13
12 10 10 5 5 10 13 12 6 4 2 3 0 7 5 9 15 16 15 16 17 13 11 11 14 17 19 18 16 17 19 18 16 17 16 14 14 15 16 13 11 14 17 17 18 19 19 17 14 12 14 14 20 22 24 22 20 19 19 19 20 22 22 23 23 23 22 21 20 20 21 17 18 20 21 19 17 16 17 17 18 17 16 16 14 13
11 10 9 5 7 10 11 10 5 3 5 3 1 5 6 9 13 14 18 20 16 14 15 12 12 17 19 17 17 17 19 19 19 20 19 17 17 16 16 13 10 14 14 15 18 20 21 21 19 16 17 14 17 18 19 20 19 18 20 21 22 21 21 21 21 20 20 21 20 20 18 18 20 21 18 17 18 18 18 18 16 16 16 16 13 13
8 9 7 7 7 6 5 7 6 4 1 1 6 7 10 9 5 13 12 2 7 4 6 12 20 20 20 21 20 17 18 19 20 19 18 17 16 13 11 9 8 10 13 14 16 19 22 23 22 16 14 14 14 16 18 20 19 19 20 21 21 20 21 20 20 20 19 19 18 21 20 21 20 18 16 18 18 19 19 18 17 17 14 12 12 13
9 9 5 7 4 7 8 9 7 2 3 1 4 7 13 12 17 13 9 5 4 1 9 16 22 21 21 20 20 18 19 18 17 14 7 11 8 6 7 10 13 16 16 17 17 20 22 23 24 17 13 14 15 17 18 18 19 19 19 20 19 20 20 20 21 20 18 18 18 17 17 19 19 18 19 19 19 19 18 17 15 15 11 13 14 14
7 9 6 8 4 5 9 9 5 4 8 8 7 12 15 15 12 16 7 2 2 7 12 15 18 19 20 18 18 20 20 17 13 11 6 4 6 12 14 14 16 16 18 19 20 20 21 21 20 17 13 15 16 17 18 19 19 19 19 19 20 20 20 21 21 20 21 18 17 14 16 17 17 17 18 18 17 17 17 16 14 14 13 15 15 15
8 7 6 5 6 7 7 8 6 7 3 6 16 18 21 19 16 14 5 2 3 9 17 19 20 21 19 18 18 17 12 13 11 11 11 10 15 15 13 12 15 19 19 20 21 20 20 19 17 16 14 15 17 18 18 20 21 20 20 19 20 20 20 20 20 20 20 19 19 19 18 16 17 18 18 17 16 14 14 14 13 12 13 13 13 14
9 7 5 5 6 6 8 7 7 3 3 11 17 17 22 21 19 9 7 8 14 22 20 19 21 20 19 18 16 14 11 11 11 16 17 15 13 12 10 12 14 16 16 16 19 18 16 17 16 14 14 16 18 19 19 20 20 20 19 20 20 20 20 19 19 20 20 19 18 19 17 15 16 17 18 17 15 14 16 13 12 15 14 13 13 12
10 8 6 8 8 9 9 7 5 0 3 11 19 19 18 20 11 11 12 15 20 22 19 18 20 20 18 18 15 13 12 13 16 21 21 16 11 12 11 12 12 16 18 17 12 12 13 14 12 13 14 14 17 17 19 18 19 19 19 19 19 20 19 18 17 18 17 17 17 17 18 17 18 16 16 18 17 14 12 15 14 14 12 11 10 10
9 8 5 8 8 9 8 10 8 5 4 16 17 15 13 13 9 14 10 13 16 19 19 17 19 21 17 17 14 12 16 20 20 19 19 16 11 13 14 14 15 15 14 14 12 11 9 8 5 8 13 14 15 17 18 18 19 19 19 19 20 20 18 18 18 17 14 16 17 16 18 17 15 13 14 16 15 14 13 14 13 10 10 11 12 14
8 8 8 9 7 6 7 9 7 6 5 20 21 12 6 13 11 14 15 15 14 16 18 19 16 21 18 14 16 20 22 19 20 19 17 16 14 14 13 14 14 12 12 14 13 12 10 9 4 7 12 10 14 15 16 18 19 19 18 18 19 17 17 17 17 18 18 15 16 18 17 14 16 13 9 11 12 15 17 15 13 13 12 14 12 13
8 7 6 6 7 7 8 8 5 9 16 18 16 12 15 11 11 13 14 15 14 13 14 15 18 18 19 15 16 17 21 21 19 19 18 16 13 13 13 13 12 12 12 12 11 12 13 12 6 9 12 8 8 15 16 17 17 16 17 18 16 15 15 17 17 17 18 15 15 13 14 15 15 13 14 13 12 13 17 15 15 12 12 13 14 14
8 7 6 8 8 4 6 11 12 14 14 14 15 14 14 16 13 14 15 15 15 13 13 14 16 19 18 18 17 18 18 16 20 20 18 15 13 12 12 12 10 10 10 12 14 14 13 9 8 5 6 6 9 8 13 16 17 17 18 17 16 16 18 17 17 17 19 18 14 16 15 15 17 18 17 13 12 10 14 17 15 10 13 14 14 14
8 6 7 9 8 10 12 8 10 13 16 17 17 14 14 16 15 14 16 16 14 13 12 14 16 18 18 17 16 15 17 20 19 18 16 14 12 12 10 10 10 9 7 8 12 14 13 8 4 2 7 4 6 11 9 12 15 17 17 15 16 16 15 17 18 18 18 19 18 18 19 19 18 14 16 18 15 15 16 18 14 13 14 15 14 14
8 5 9 9 10 12 7 13 15 17 18 18 17 15 14 14 15 14 16 17 16 16 14 15 14 17 18 17 17 18 18 17 19 16 14 13 12 11 9 9 10 10 9 8 8 14 11 8 1 5 5 5 6 9 12 14 13 15 14 15 16 16 17 17 18 17 15 17 16 16 16 17 15 16 16 17 18 17 16 14 12 14 14 17 17 14
5 7 11 9 12 9 11 14 16 18 19 13 10 14 18 19 20 19 16 16 16 17 16 18 17 17 17 16 18 18 20 19 13 14 13 12 11 8 7 8 10 9 7 9 10 12 11 8 8 3 8 6 8 12 11 10 10 12 13 15 14 16 16 15 14 15 17 19 16 13 15 17 19 21 18 18 18 16 15 12 11 10 13 18 17 17
8 9 7 12 11 12 13 14 18 22 11 6 14 16 16 17 18 21 21 21 21 21 20 19 17 16 16 15 17 17 17 19 17 16 15 12 9 8 8 8 8 8 7 9 9 9 9 10 9 7 1 5 9 9 9 8 9 10 13 12 13 15 16 14 13 14 19 18 15 14 16 19 18 19 18 18 18 17 17 17 11 11 10 10 11 13
6 7 10 12 10 10 12 17 19 18 18 21 22 24 24 23 21 21 22 23 23 22 21 21 21 18 16 15 14 15 16 16 18 15 14 11 10 10 10 10 9 9 7 7 7 6 8 9 9 8 5 4 2 5 6 6 6 7 9 10 12 12 11 11 11 11 13 12 14 16 16 17 19 19 17 18 17 13 7 5 10 13 11 10 12 15
6 8 8 8 8 11 14 16 14 13 15 15 20 23 23 20 19 21 22 22 22 22 22 22 23 22 20 19 15 16 16 15 16 13 15 13 12 11 10 10 9 8 8 8 7 6 5 6 7 8 6 6 5 3 4 6 5 6 6 6 6 10 12 13 9 8 10 11 13 14 15 17 18 18 16 15 14 14 13 10 9 13 3 14 11 13
Wind_Direction
347 276 261 258 264 312 336 320 304 303 296 284 268 264 259 259 257 253 250 239 240 267 254 256 257 258 257 258 257 256 257 255 258 258 259 258 254 253 251 249 248 249 252 252 248 246 250 239 212 189 182 182 187 199 202 199 191 189 186 185 186 189 188 190 187 187 189 188 186 190 194 192 190 191 188 192 197 199 198 184 184 183 185 191 194 198
259 265 258 274 312 306 290 292 274 270 269 265 263 258 257 247 256 249 250 161 211 250 263 259 263 258 257 255 254 255 253 253 255 257 256 257 256 257 259 259 256 254 252 249 248 244 246 246 218 195 188 183 185 194 195 194 195 196 192 192 187 183 189 193 190 186 186 188 191 187 191 193 189 189 188 190 194 199 196 186 184 183 187 192 193 198
233 275 288 324 280 264 269 277 276 267 266 254 252 252 253 249 255 259 239 229 248 245 259 263 264 261 257 257 255 250 252 254 250 251 253 253 255 253 254 257 260 259 259 256 250 245 243 241 228 206 198 198 196 185 183 193 190 196 200 195 189 188 190 194 191 186 188 188 191 189 188 193 187 194 192 192 194 195 195 189 185 184 187 191 194 199
285 308 67 267 289 286 277 257 264 262 251 254 249 241 244 261 263 251 159 231 217 235 270 272 273 269 265 259 257 252 249 250 246 246 249 247 250 249 250 250 251 253 252 253 254 250 242 241 228 211 206 200 196 192 193 200 193 191 198 197 191 192 193 193 191 193 186 185 186 186 180 189 192 186 189 195 190 193 198 193 187 186 190 192 198 197
296 308 302 259 270 272 274 271 256 255 252 238 243 257 263 264 265 274 285 300 291 263 261 269 267 263 250 250 246 239 236 241 240 241 242 242 241 245 248 250 248 249 250 251 249 249 246 240 230 217 208 199 197 195 194 196 196 195 194 199 197 196 195 193 187 191 185 181 183 182 178 181 188 184 187 195 193 195 196 195 187 190 192 195 198 200
270 357 329 275 266 257 259 262 253 253 263 259 251 254 265 274 278 272 266 270 265 262 232 231 260 255 244 240 242 241 226 225 227 237 239 240 239 234 237 240 242 239 241 247 250 251 252 248 242 225 212 206 204 201 197 190 197 202 200 201 196 197 197 192 186 189 187 182 182 179 179 183 186 188 187 195 192 190 195 197 184 191 193 197 199 199
318 354 274 289 283 270 256 259 268 266 261 265 254 265 256 259 263 263 261 254 255 259 249 204 244 265 252 244 221 229 235 235 214 227 237 238 243 240 238 235 234 239 237 236 242 247 246 245 245 234 220 214 210 207 196 194 194 201 201 199 199 199 198 189 186 189 189 184 186 186 186 186 188 189 192 194 194 191 192 195 187 190 191 197 198 201
211 244 260 265 276 272 265 256 234 232 255 254 266 183 264 261 260 257 255 251 262 271 278 218 243 272 264 242 230 230 238 241 242 247 249 247 246 244 242 242 244 239 237 238 234 238 241 241 241 239 224 217 213 205 198 199 198 202 201 196 197 196 194 191 190 191 191 186 185 186 189 192 194 192 189 190 190 192 192 190 187 187 190 196 199 197
347 323 307 293 281 272 271 284 296 278 248 267 273 261 269 262 260 264 258 254 253 255 248 237 228 245 250 253 247 238 238 238 241 247 248 246 247 247 244 238 234 239 242 242 239 231 236 239 237 236 231 219 214 205 199 190 188 197 199 195 196 195 195 194 193 192 192 190 183 185 189 192 195 190 185 184 189 189 190 190 185 189 189 195 200 197
292 309 298 297 283 279 287 290 269 239 246 240 263 266 265 270 266 256 254 252 251 245 250 244 228 244 252 244 228 211 232 243 242 244 245 243 246 246 246 240 234 231 237 240 243 239 236 239 239 235 232 222 213 206 200 192 188 198 202 195 194 196 198 195 195 195 192 190 183 187 191 191 191 188 188 186 185 190 186 190 186 191 191 191 195 198
285 282 273 267 269 282 284 283 256 245 243 275 269 264 254 242 237 232 234 247 248 247 247 242 242 245 262 241 235 226 224 236 242 238 239 239 246 249 250 248 244 233 233 240 239 237 234 235 240 239 231 222 214 204 197 192 195 200 197 195 192 198 201 196 196 195 194 191 188 190 189 190 191 191 186 182 186 187 187 190 186 189 191 191 190 197
278 262 226 218 250 265 275 264 236 232 243 240 243 246 254 249 248 248 244 234 239 245 242 241 238 235 250 242 241 246 257 249 247 257 259 258 259 261 258 255 247 247 243 241 242 241 237 234 232 232 232 223 216 203 198 195 192 198 201 199 198 201 201 199 196 198 196 194 195 198 192 190 193 190 189 186 188 187 187 189 185 185 188 189 189 195
297 343 26 205 195 251 228 258 236 221 219 229 239 238 242 251 234 244 235 226 228 237 234 232 229 234 234 250 263 258 247 243 238 248 262 270 270 268 267 262 258 251 242 241 246 243 240 236 233 231 228 223 216 210 199 197 190 193 202 201 202 203 203 201 199 199 198 197 199 198 194 192 192 194 192 188 187 188 186 187 186 185 190 186 190 192
324 313 200 176 187 194 257 288 293 246 226 232 232 233 241 246 238 243 243 242 250 245 246 245 232 246 263 256 250 246 247 254 260 263 264 263 265 268 268 266 260 251 248 243 248 249 240 234 231 234 231 222 216 211 200 195 192 191 199 198 201 204 201 198 194 198 197 199 199 199 197 192 189 193 194 193 190 183 186 189 189 190 193 189 191 189
323 330 151 212 322 143 261 267 301 305 284 247 244 243 244 249 253 252 254 251 254 268 254 229 230 240 249 241 236 246 248 247 245 250 255 260 264 267 269 269 267 264 258 251 245 245 242 239 237 236 236 232 223 212 202 194 193 191 197 202 203 203 200 199 200 198 199 200 200 199 199 194 191 190 192 195 196 191 189 190 187 192 196 192 192 191
303 293 292 246 284 242 285 288 276 280 269 256 244 251 250 247 249 261 283 291 290 291 277 254 250 238 241 272 277 263 258 250 244 253 258 261 265 268 269 269 270 267 260 253 249 245 245 243 240 236 235 237 235 219 214 201 192 191 197 203 205 203 201 199 195 192 196 199 197 196 199 194 190 187 189 195 195 197 192 187 188 192 197 193 192 191
314 290 27 305 242 257 280 296 267 237 259 29 258 238 248 283 267 274 270 263 270 265 257 256 259 251 266 263 255 260 261 260 262 263 264 264 272 296 297 287 269 263 261 255 248 247 252 253 248 241 240 236 232 224 214 207 192 190 193 200 206 205 205 205 200 193 196 195 192 191 199 194 188 187 191 193 194 198 192 182 188 195 199 197 193 190
286 288 295 279 267 262 247 296 280 249 258 284 260 272 289 260 282 263 263 270 247 256 263 250 252 253 250 258 239 252 248 251 256 253 246 263 284 277 280 284 282 266 258 259 260 257 256 255 253 248 242 238 232 225 217 213 197 190 191 199 204 204 204 206 204 195 189 194 197 195 196 195 192 187 191 194 196 195 189 178 187 195 198 197 185 180
320 295 303 295 258 77 14 346 263 254 249 251 257 317 277 219 226 220 247 246 250 253 267 256 256 261 260 264 265 254 246 244 252 271 280 272 268 272 283 292 300 299 274 256 254 251 251 251 249 245 244 242 235 227 217 212 200 192 194 198 203 203 204 202 200 190 195 196 193 195 196 195 188 183 188 194 193 190 187 182 190 195 193 186 176 186
249 279 301 107 282 123 180 155 270 282 229 241 256 256 245 270 274 257 211 263 269 271 268 270 269 265 253 260 259 264 262 263 275 288 291 296 283 268 277 289 300 301 306 301 282 267 255 250 247 243 237 236 234 226 215 211 203 196 194 194 198 203 204 205 204 193 189 191 193 194 194 197 190 186 189 194 191 187 186 184 190 191 187 184 181 187
274 210 274 38 104 142 253 191 240 279 279 238 217 234 225 236 266 273 251 251 262 269 263 283 280 263 269 278 276 272 276 282 282 285 283 280 264 259 271 282 294 298 297 293 287 282 279 270 263 255 250 242 234 224 214 210 205 196 194 194 195 199 202 200 199 194 193 193 196 192 194 195 189 186 190 193 193 187 182 185 187 186 187 184 186 191
270 223 259 276 272 251 251 220 234 274 275 260 244 236 228 228 223 233 256 228 243 250 261 263 270 287 289 273 263 262 260 265 278 305 297 282 269 271 283 294 298 296 294 292 289 285 279 272 263 260 254 249 242 227 213 207 205 196 195 193 191 196 202 200 190 190 193 194 194 195 197 193 188 186 190 191 188 190 185 189 188 185 189 187 187 193
207 288 266 272 267 279 278 270 241 254 259 263 253 244 234 236 236 237 249 234 241 247 259 264 282 280 277 313 273 265 281 297 335 323 308 297 300 292 288 290 291 287 286 290 290 287 281 272 265 258 254 248 240 230 216 208 205 198 194 190 188 193 198 197 194 191 191 192 195 196 193 190 188 184 186 188 191 193 191 186 187 188 188 187 190 193
38 269 272 267 280 277 263 282 249 250 254 248 238 243 239 228 227 242 255 265 257 251 247 249 250 265 267 137 230 289 284 244 323 304 289 310 301 283 285 287 286 285 292 294 289 283 276 267 263 255 248 242 238 231 217 210 208 197 191 188 187 191 195 194 190 186 189 194 195 195 188 190 187 185 185 189 191 191 191 183 186 184 187 190 190 191
286 217 248 300 307 300 173 199 219 233 226 239 248 227 234 247 238 240 256 260 269 261 263 265 262 257 281 272 220 245 217 271 285 259 249 290 298 289 283 282 279 286 293 291 293 290 280 272 263 256 248 242 235 227 216 210 210 199 191 189 187 187 193 197 189 186 191 192 190 190 187 190 189 187 188 189 186 188 189 182 179 182 190 192 191 184
222 258 260 276 294 307 319 317 317 305 306 304 276 255 243 246 250 247 242 240 255 261 253 251 261 268 270 207 229 235 255 271 276 274 266 261 272 279 284 287 289 290 291 295 296 288 280 276 269 262 253 244 235 226 214 208 208 201 191 187 184 183 188 196 193 191 190 191 190 189 188 188 190 189 187 183 184 187 189 182 181 182 191 193 190 179
257 253 228 250 258 272 277 280 270 173 294 283 279 267 254 241 250 251 263 262 250 274 273 259 259 276 285 284 286 289 284 279 277 276 272 281 290 290 288 286 288 290 292 294 291 288 285 274 270 266 258 243 233 224 212 206 206 200 188 184 181 182 187 191 194 191 190 191 190 188 188 187 190 191 188 182 180 187 187 183 183 185 191 192 184 174
271 293 261 237 247 252 268 275 278 273 272 273 275 268 262 250 235 244 246 252 271 287 275 266 266 270 275 288 292 299 304 308 307 303 288 284 302 300 294 290 288 287 288 284 283 287 285 280 274 268 258 243 231 222 211 203 202 198 189 183 181 183 187 191 193 193 193 192 191 190 187 189 192 190 183 178 179 185 188 183 183 186 190 186 180 178
316 290 293 257 282 273 268 270 274 281 268 262 270 274 264 256 246 241 242 251 261 262 267 281 297 293 290 291 292 295 303 304 302 295 291 290 296 297 292 292 292 290 291 294 290 282 279 279 275 267 259 241 227 219 207 201 198 195 186 181 180 182 186 186 191 192 193 192 192 191 187 188 190 185 179 175 181 188 189 185 182 185 188 187 178 178
276 270 297 298 299 305 306 287 272 273 280 274 260 264 267 266 258 255 258 260 259 263 265 275 282 282 284 284 292 300 299 295 294 293 285 277 282 293 291 288 288 291 292 290 282 281 286 285 280 272 260 239 222 213 204 200 198 191 183 180 180 183 185 187 190 191 190 192 193 192 188 185 181 181 177 177 180 187 187 184 181 184 186 189 177 173
146 309 335 309 307 317 338 327 333 309 305 303 285 269 270 266 266 264 266 263 263 265 267 270 274 278 279 287 292 292 297 296 292 291 294 283 279 285 286 286 288 289 290 285 280 277 279 284 286 281 260 239 219 211 203 199 194 187 183 181 179 182 184 187 187 189 189 189 190 188 186 183 175 180 180 180 181 182 185 186 182 181 183 186 179 171
258 284 308 306 320 324 9 342 357 14 107 88 7 301 330 325 295 285 274 275 267 266 270 275 275 274 287 302 306 307 304 301 301 301 298 295 295 286 277 277 278 283 286 289 294 292 289 292 294 290 267 235 221 209 204 199 195 185 182 183 184 182 185 186 188 187 187 189 188 187 184 177 176 180 179 179 182 181 187 186 181 180 181 183 177 168
316 312 318 329 322 330 347 344 343 326 217 46 15 344 321 307 319 318 311 295 271 271 277 270 271 292 308 316 311 302 301 299 297 297 297 293 287 282 279 275 278 284 285 292 301 304 302 297 293 288 276 246 226 211 205 198 192 186 184 185 184 183 185 185 187 188 190 190 188 185 180 174 179 181 179 181 182 179 183 184 183 180 180 182 174 161
317 326 320 333 303 316 325 327 318 278 356 21 231 302 274 288 308 307 306 305 298 287 292 298 305 320 317 308 305 307 308 309 308 300 292 289 291 283 276 269 281 288 284 294 303 305 305 300 294 286 281 243 225 204 206 199 194 186 184 183 184 184 186 185 187 190 189 189 187 184 180 176 180 180 180 180 177 176 180 182 185 183 179 177 171 164
309 317 317 325 307 321 311 310 281 310 21 133 255 292 295 291 291 293 295 292 290 288 287 300 323 314 308 317 320 319 314 311 308 302 294 289 285 278 273 279 279 272 287 303 304 304 301 298 290 280 278 257 226 211 201 194 193 188 186 186 186 186 186 188 187 188 188 188 184 181 174 177 180 182 178 175 174 174 177 180 186 181 177 175 165 165
321 319 326 310 331 297 307 332 327 32 120 194 265 283 309 289 272 316 296 326 22 348 307 319 321 323 323 321 321 321 318 317 307 294 283 279 276 276 279 281 286 291 294 296 298 294 291 287 283 270 266 262 227 210 201 192 189 191 188 188 187 185 184 186 188 188 188 184 179 180 175 176 178 177 173 173 173 174 178 179 184 183 175 169 177 186
325 309 332 323 14 341 318 315 320 134 146 283 345 350 348 342 326 325 312 319 346 315 356 331 322 320 321 317 316 317 323 316 303 301 347 323 317 322 322 321 315 304 299 295 293 284 279 281 280 273 261 259 227 209 198 192 185 189 190 188 187 185 185 186 190 188 179 179 176 174 175 180 177 174 171 170 172 175 176 177 182 185 174 172 178 183
337 324 334 309 341 333 333 324 338 347 358 8 355 328 332 325 320 322 316 287 59 321 335 323 318 318 315 314 314 316 318 314 310 310 334 298 337 332 326 314 308 302 297 291 284 276 274 272 267 262 248 244 227 214 200 190 182 181 188 190 187 185 186 187 190 187 183 177 176 169 179 178 172 167 168 167 172 174 173 173 176 177 175 178 179 185
346 326 319 314 328 339 344 333 345 341 36 22 348 344 335 327 323 327 283 233 180 337 331 331 322 321 317 315 311 310 310 308 299 294 307 335 322 318 311 313 306 294 284 279 278 277 277 272 262 254 232 231 219 208 202 192 186 182 184 188 187 187 186 188 188 185 180 177 176 178 176 170 171 169 167 169 170 166 164 171 174 173 175 180 182 185
357 347 330 357 340 358 339 331 335 331 354 11 352 344 333 323 326 301 329 341 341 335 327 323 319 313 308 308 309 304 299 289 290 299 309 308 300 304 295 285 276 269 272 273 271 271 277 272 256 237 225 215 208 200 196 192 186 186 184 186 187 186 186 184 184 181 181 179 174 176 173 167 164 165 167 167 169 168 168 164 165 172 173 178 180 176
355 352 356 357 350 343 340 326 314 189 118 358 352 343 332 316 301 0 8 318 320 318 319 320 314 312 308 307 309 305 291 281 282 287 292 296 301 298 292 279 264 268 270 272 281 296 267 250 234 219 212 205 200 193 190 188 184 184 183 182 184 187 186 182 177 181 180 175 171 171 169 165 166 160 162 170 169 163 160 168 169 171 169 169 170 171
358 344 352 358 360 344 340 326 323 331 58 344 351 343 338 334 14 347 309 300 304 310 313 314 312 305 300 301 299 291 289 294 291 295 304 310 307 300 290 287 283 283 295 296 295 291 295 285 285 260 212 201 196 189 186 185 185 185 186 185 189 188 185 181 177 176 166 167 171 169 166 165 160 148 160 163 156 157 162 172 167 159 162 175 182 184
0 332 358 351 344 322 341 339 339 340 353 345 337 334 39 356 325 313 304 298 306 307 312 313 312 304 309 306 296 294 298 302 308 310 307 309 309 305 297 296 301 298 304 298 314 323 322 301 208 236 260 213 193 189 183 183 183 184 184 189 187 183 181 179 178 174 173 166 165 163 162 158 159 159 149 156 154 161 169 164 161 167 166 176 173 171
5 336 350 340 5 325 337 350 339 328 322 330 339 335 331 316 303 302 310 304 309 308 308 311 305 303 308 307 305 299 301 308 313 314 313 311 314 311 301 303 307 308 303 308 328 330 324 308 232 176 229 268 221 185 181 181 180 180 182 184 180 175 172 178 180 175 172 160 163 152 154 159 161 158 160 154 155 155 163 166 168 163 174 182 178 175
27 337 344 317 329 311 317 306 309 313 318 326 330 322 323 323 321 318 316 312 308 309 309 306 301 304 309 311 310 303 303 308 319 319 315 317 315 309 307 312 315 318 318 326 331 324 310 289 271 163 173 222 291 240 184 182 177 169 181 180 179 178 179 178 176 170 166 165 161 160 163 165 167 168 167 160 159 152 162 162 162 160 177 179 182 178
318 326 317 296 300 311 286 279 310 320 331 328 318 320 326 328 326 328 324 321 316 308 312 307 304 305 308 314 312 306 306 309 319 325 323 318 315 307 305 316 321 323 321 346 324 304 299 280 238 144 125 157 226 261 222 188 177 171 182 176 176 177 179 175 172 171 168 167 167 168 166 167 166 160 165 170 174 168 167 168 165 169 175 179 180 178
325 338 317 303 320 321 318 338 332 331 325 320 317 322 329 334 331 327 325 324 322 315 310 300 307 312 319 320 315 312 308 304 319 326 333 325 315 309 315 333 329 330 330 337 302 297 313 324 111 131 122 157 195 240 224 190 180 179 173 173 170 175 174 173 170 169 168 168 168 166 164 164 168 170 172 173 176 176 172 168 163 168 175 182 182 180
311 13 311 324 323 313 319 328 335 326 315 310 326 333 335 338 333 329 327 323 319 315 319 321 323 317 323 319 321 323 323 319 324 332 329 319 311 312 337 339 336 328 324 318 316 315 325 346 347 115 139 156 196 211 223 195 186 181 176 173 172 169 169 171 167 170 170 167 164 161 162 167 170 173 174 172 173 175 176 171 163 161 170 181 180 180
327 319 305 333 313 317 313 332 335 321 305 315 328 329 332 333 329 325 327 328 326 325 327 328 326 317 318 314 315 325 324 321 332 336 321 313 319 350 349 348 341 334 324 323 324 326 336 341 348 346 307 191 188 197 198 199 195 184 187 182 175 171 173 173 164 171 174 172 167 167 173 178 173 175 174 175 177 176 177 177 168 166 170 181 180 181
303 300 328 322 322 325 335 334 339 338 334 332 336 334 330 329 328 325 325 328 329 327 327 328 326 325 321 318 324 325 326 325 323 321 324 332 338 349 351 345 341 335 335 329 328 351 351 352 355 356 347 303 251 187 197 196 188 176 183 185 176 163 154 160 167 173 170 170 172 172 177 181 179 181 177 174 175 165 138 61 156 175 167 177 189 175
311 331 325 322 318 315 321 324 328 319 306 309 316 319 319 322 324 325 326 326 326 324 326 329 328 328 330 334 333 328 325 325 319 323 339 338 340 351 345 342 338 333 333 343 349 358 3 8 4 6 3 360 346 308 202 189 172 160 142 141 151 160 162 167 166 163 164 169 177 174 178 181 182 184 181 177 170 165 154 141 42 28 159 174 157 151